QPF
0.00 0.00 0.00 0.00 0.00 0.00 0.00 0.00 0.00 0.00 0.00 0.00 0.00 0.00 0.00 0.01 0.07 0.02 0.03 0.03 0.00 0.00 0.00 0.00 0.00 0.00 0.00 0.00 0.00 0.00 0.00 0.00 0.00 0.00 0.00 0.00 0.02 0.07 0.01 0.00 0.00 0.00 0.09 0.19
0.00 0.00 0.00 0.00 0.00 0.00 0.00 0.00 0.00 0.00 0.00 0.00 0.00 0.00 0.00 0.02 0.09 0.06 0.02 0.02 0.00 0.00 0.00 0.00 0.00 0.00 0.00 0.00 0.00 0.00 0.00 0.00 0.00 0.00 0.00 0.00 0.01 0.01 0.00 0.00 0.00 0.00 0.05 0.16
0.00 0.00 0.00 0.00 0.00 0.00 0.00 0.00 0.00 0.00 0.00 0.00 0.00 0.00 0.00 0.03 0.07 0.04 0.01 0.02 0.02 0.00 0.00 0.00 0.00 0.00 0.00 0.00 0.00 0.00 0.00 0.00 0.00 0.00 0.00 0.00 0.01 0.01 0.00 0.02 0.00 0.00 0.01 0.03
0.00 0.00 0.00 0.00 0.00 0.00 0.00 0.00 0.00 0.00 0.00 0.00 0.00 0.00 0.00 0.00 0.02 0.07 0.04 0.01 0.00 0.00 0.00 0.01 0.00 0.00 0.00 0.00 0.00 0.00 0.00 0.00 0.00 0.00 0.00 0.00 0.00 0.00 0.00 0.06 0.03 0.00 0.00 0.01
0.00 0.00 0.00 0.00 0.00 0.00 0.00 0.00 0.00 0.00 0.00 0.00 0.00 0.00 0.00 0.01 0.01 0.02 0.05 0.03 0.01 0.01 0.00 0.00 0.00 0.00 0.00 0.00 0.00 0.00 0.00 0.00 0.00 0.00 0.00 0.00 0.00 0.00 0.01 0.04 0.05 0.01 0.00 0.00
0.00 0.00 0.00 0.00 0.00 0.00 0.00 0.00 0.00 0.00 0.00 0.00 0.00 0.00 0.00 0.00 0.00 0.00 0.01 0.00 0.00 0.01 0.00 0.00 0.00 0.00 0.00 0.00 0.00 0.00 0.00 0.00 0.01 0.01 0.00 0.00 0.00 0.01 0.02 0.08 0.04 0.01 0.00 0.00
0.00 0.00 0.00 0.00 0.00 0.00 0.00 0.00 0.00 0.00 0.00 0.00 0.00 0.00 0.00 0.00 0.00 0.00 0.00 0.00 0.00 0.01 0.00 0.00 0.00 0.00 0.00 0.00 0.00 0.00 0.00 0.00 0.00 0.00 0.00 0.00 0.02 0.00 0.00 0.01 0.02 0.03 0.00 0.00
0.00 0.00 0.00 0.00 0.00 0.00 0.00 0.00 0.00 0.00 0.00 0.00 0.00 0.00 0.00 0.00 0.00 0.00 0.00 0.00 0.00 0.01 0.01 0.01 0.00 0.00 0.00 0.00 0.00 0.00 0.00 0.00 0.00 0.00 0.00 0.02 0.03 0.00 0.00 0.00 0.00 0.01 0.02 0.00
0.00 0.00 0.00 0.00 0.00 0.00 0.00 0.00 0.00 0.00 0.00 0.00 0.00 0.00 0.00 0.00 0.00 0.00 0.00 0.00 0.00 0.02 0.01 0.00 0.00 0.00 0.00 0.00 0.00 0.00 0.00 0.00 0.00 0.00 0.00 0.00 0.02 0.01 0.00 0.00 0.01 0.01 0.01 0.02
0.00 0.00 0.00 0.00 0.00 0.00 0.00 0.00 0.00 0.00 0.00 0.00 0.00 0.00 0.00 0.00 0.00 0.00 0.00 0.01 0.01 0.01 0.00 0.01 0.00 0.00 0.00 0.00 0.00 0.00 0.00 0.00 0.00 0.00 0.00 0.00 0.00 0.03 0.03 0.00 0.00 0.00 0.02 0.04
0.00 0.00 0.00 0.00 0.00 0.00 0.00 0.00 0.00 0.00 0.00 0.00 0.00 0.00 0.00 0.00 0.00 0.00 0.01 0.01 0.00 0.00 0.00 0.00 0.00 0.00 0.00 0.00 0.00 0.00 0.00 0.00 0.00 0.00 0.00 0.00 0.00 0.00 0.01 0.00 0.00 0.00 0.01 0.02
0.00 0.00 0.00 0.00 0.00 0.00 0.00 0.00 0.00 0.00 0.00 0.00 0.00 0.00 0.00 0.00 0.00 0.00 0.01 0.02 0.00 0.00 0.00 0.00 0.00 0.00 0.00 0.00 0.00 0.00 0.00 0.00 0.00 0.00 0.00 0.00 0.00 0.00 0.02 0.01 0.00 0.00 0.00 0.02
0.00 0.00 0.00 0.00 0.00 0.00 0.00 0.00 0.00 0.00 0.00 0.00 0.00 0.00 0.00 0.00 0.00 0.00 0.01 0.03 0.00 0.00 0.00 0.00 0.00 0.00 0.00 0.00 0.00 0.00 0.00 0.00 0.00 0.00 0.00 0.00 0.00 0.00 0.02 0.00 0.00 0.00 0.00 0.02
0.00 0.00 0.00 0.00 0.00 0.00 0.00 0.00 0.00 0.00 0.00 0.00 0.00 0.00 0.00 0.00 0.00 0.00 0.00 0.01 0.00 0.00 0.00 0.00 0.00 0.00 0.00 0.00 0.00 0.00 0.00 0.00 0.00 0.00 0.00 0.01 0.00 0.01 0.03 0.02 0.01 0.01 0.03 0.02
0.00 0.00 0.00 0.00 0.00 0.00 0.00 0.00 0.00 0.00 0.00 0.00 0.00 0.00 0.00 0.00 0.00 0.00 0.00 0.00 0.00 0.00 0.00 0.00 0.00 0.00 0.00 0.01 0.00 0.00 0.00 0.00 0.00 0.00 0.00 0.00 0.00 0.01 0.00 0.03 0.09 0.06 0.03 0.04
0.01 0.00 0.00 0.00 0.00 0.00 0.00 0.00 0.00 0.00 0.00 0.00 0.00 0.00 0.00 0.00 0.00 0.00 0.01 0.00 0.00 0.00 0.00 0.00 0.00 0.00 0.00 0.00 0.00 0.00 0.00 0.00 0.00 0.00 0.00 0.00 0.02 0.02 0.01 0.04 0.02 0.03 0.04 0.02
0.00 0.00 0.00 0.00 0.00 0.00 0.00 0.00 0.00 0.00 0.00 0.00 0.00 0.00 0.00 0.00 0.00 0.00 0.00 0.00 0.00 0.00 0.00 0.00 0.00 0.00 0.00 0.00 0.00 0.00 0.00 0.00 0.00 0.00 0.01 0.00 0.00 0.00 0.00 0.01 0.03 0.02 0.06 0.02
0.00 0.00 0.00 0.00 0.01 0.01 0.00 0.00 0.00 0.00 0.00 0.00 0.00 0.00 0.00 0.00 0.00 0.00 0.01 0.00 0.00 0.00 0.00 0.00 0.00 0.00 0.00 0.00 0.00 0.00 0.00 0.00 0.00 0.01 0.00 0.00 0.00 0.01 0.01 0.01 0.01 0.02 0.02 0.01
0.00 0.00 0.00 0.00 0.00 0.00 0.00 0.00 0.00 0.00 0.00 0.00 0.00 0.00 0.00 0.00 0.00 0.00 0.01 0.01 0.01 0.00 0.00 0.00 0.00 0.00 0.00 0.00 0.00 0.00 0.00 0.00 0.00 0.00 0.00 0.00 0.00 0.00 0.00 0.01 0.01 0.02 0.00 0.00
0.00 0.00 0.00 0.00 0.02 0.00 0.00 0.00 0.00 0.00 0.00 0.00 0.00 0.00 0.00 0.00 0.00 0.00 0.02 0.08 0.08 0.01 0.00 0.00 0.00 0.00 0.00 0.00 0.00 0.00 0.00 0.00 0.00 0.00 0.00 0.00 0.00 0.00 0.00 0.00 0.00 0.00 0.00 0.00
0.00 0.00 0.00 0.00 0.04 0.01 0.00 0.00 0.00 0.00 0.01 0.00 0.00 0.00 0.00 0.00 0.00 0.00 0.00 0.02 0.09 0.11 0.01 0.00 0.00 0.00 0.00 0.00 0.00 0.00 0.00 0.00 0.00 0.00 0.00 0.00 0.00 0.00 0.00 0.00 0.00 0.00 0.00 0.00
0.01 0.02 0.01 0.01 0.02 0.01 0.00 0.01 0.07 0.02 0.02 0.00 0.00 0.00 0.00 0.01 0.02 0.01 0.00 0.02 0.06 0.08 0.02 0.00 0.00 0.00 0.00 0.00 0.00 0.00 0.00 0.00 0.00 0.00 0.00 0.00 0.00 0.00 0.00 0.00 0.00 0.00 0.00 0.00
0.07 0.11 0.10 0.04 0.01 0.02 0.01 0.04 0.06 0.04 0.04 0.01 0.01 0.00 0.00 0.00 0.03 0.05 0.02 0.02 0.01 0.05 0.03 0.01 0.00 0.00 0.00 0.00 0.00 0.00 0.00 0.00 0.00 0.00 0.00 0.00 0.00 0.00 0.00 0.00 0.00 0.00 0.00 0.00
0.06 0.05 0.04 0.04 0.01 0.00 0.01 0.01 0.04 0.03 0.04 0.02 0.01 0.00 0.00 0.00 0.02 0.03 0.02 0.01 0.00 0.00 0.01 0.00 0.00 0.00 0.00 0.00 0.00 0.00 0.00 0.00 0.00 0.00 0.00 0.00 0.00 0.00 0.00 0.00 0.00 0.00 0.00 0.00
0.01 0.05 0.05 0.06 0.04 0.05 0.06 0.03 0.03 0.01 0.03 0.04 0.01 0.01 0.00 0.00 0.04 0.07 0.04 0.02 0.00 0.00 0.05 0.01 0.00 0.00 0.00 0.00 0.00 0.00 0.00 0.00 0.00 0.00 0.00 0.00 0.00 0.00 0.00 0.00 0.00 0.00 0.00 0.00
0.00 0.00 0.02 0.02 0.03 0.03 0.06 0.03 0.01 0.01 0.02 0.01 0.01 0.00 0.00 0.00 0.01 0.05 0.07 0.03 0.03 0.12 0.19 0.10 0.00 0.00 0.00 0.00 0.00 0.00 0.00 0.00 0.00 0.00 0.00 0.00 0.00 0.00 0.00 0.00 0.00 0.00 0.00 0.00
MSLP
1005.25 1005.77 1005.66 1005.07 1004.54 1004.05 1003.58 1003.41 1003.62 1003.83 1004.23 1004.65 1005.11 1005.54 1005.96 1007.25 1008.99 1009.06 1008.69 1008.88 1008.80 1008.95 1008.64 1008.60 1009.14 1009.78 1010.55 1011.49 1012.39 1013.14 1013.94 1014.64 1015.04 1015.30 1015.51 1015.65 1015.90 1016.15 1016.11 1016.06 1015.98 1016.47 1017.02 1018.41
1005.43 1005.24 1004.55 1004.05 1003.48 1003.13 1002.84 1002.84 1002.92 1002.66 1002.53 1003.54 1004.19 1004.96 1005.78 1007.12 1008.39 1009.27 1009.37 1009.06 1008.64 1008.75 1008.86 1008.93 1009.20 1009.75 1010.23 1011.25 1012.19 1012.92 1013.86 1014.48 1014.75 1014.97 1015.20 1015.42 1015.75 1015.92 1015.85 1015.70 1015.74 1016.15 1016.88 1017.74
1004.93 1004.17 1003.44 1003.30 1002.92 1002.70 1002.57 1002.55 1002.37 1002.24 1002.21 1002.66 1003.89 1005.57 1006.91 1008.29 1008.12 1006.78 1008.20 1008.47 1008.39 1008.50 1008.73 1008.92 1009.28 1009.74 1010.12 1010.94 1011.77 1012.69 1013.51 1014.19 1014.41 1014.68 1015.09 1015.46 1015.77 1016.03 1016.19 1016.05 1015.96 1016.20 1016.26 1017.64
1004.12 1003.20 1002.75 1002.30 1002.18 1002.13 1002.25 1001.87 1001.88 1002.10 1002.70 1003.53 1004.09 1006.19 1007.57 1008.30 1008.25 1008.17 1007.75 1007.52 1007.23 1007.37 1008.12 1008.63 1008.77 1009.29 1009.79 1010.43 1011.26 1012.23 1013.02 1013.81 1014.12 1014.47 1014.94 1015.39 1015.83 1016.29 1016.27 1016.47 1016.06 1016.04 1015.78 1016.76
1003.43 1002.85 1002.24 1001.89 1001.64 1001.65 1001.88 1001.74 1002.11 1002.54 1003.17 1003.99 1004.32 1006.02 1007.75 1008.28 1008.27 1007.86 1006.82 1006.33 1006.21 1006.09 1006.83 1007.60 1008.08 1008.65 1009.21 1009.99 1010.74 1011.70 1012.57 1013.33 1013.66 1014.11 1014.56 1015.11 1015.60 1015.93 1016.00 1016.32 1016.21 1016.16 1016.02 1015.96
1002.97 1002.26 1001.78 1001.17 1001.00 1000.97 1001.32 1001.76 1002.41 1002.85 1003.65 1004.64 1004.88 1005.49 1006.76 1007.01 1007.05 1006.61 1005.79 1005.87 1005.43 1005.52 1005.77 1006.43 1007.32 1008.01 1009.06 1009.65 1010.37 1011.32 1012.30 1012.75 1013.26 1013.75 1014.18 1014.68 1015.27 1015.62 1015.89 1016.23 1016.41 1016.19 1016.12 1015.97
1002.86 1001.96 1001.05 1000.83 1000.96 1000.92 1001.58 1002.67 1003.48 1004.39 1004.67 1004.64 1004.19 1004.71 1004.18 1003.38 1003.50 1004.26 1004.55 1002.91 1003.61 1005.13 1005.06 1005.61 1006.80 1007.52 1008.53 1009.21 1009.92 1010.88 1011.78 1012.38 1012.84 1013.31 1013.69 1014.17 1014.75 1015.29 1015.67 1015.45 1015.68 1016.02 1015.92 1015.94
1002.69 1001.62 1000.51 1000.05 1000.29 1000.76 1001.65 1002.77 1003.77 1004.46 1004.89 1004.42 1003.82 1003.51 1002.13 1001.32 1001.01 1002.11 1002.80 1002.75 1003.45 1004.21 1003.63 1004.93 1005.63 1006.64 1007.63 1008.39 1009.38 1010.22 1011.18 1011.90 1012.44 1012.83 1013.28 1013.67 1014.21 1014.93 1015.19 1015.07 1015.33 1015.65 1015.94 1015.75
1001.89 1001.07 999.77 999.19 999.23 1000.28 1001.26 1002.22 1002.83 1003.94 1004.29 1004.25 1003.16 1001.40 1001.16 1000.91 1001.49 1001.06 1001.45 1002.36 1001.96 1002.42 1003.09 1004.02 1005.15 1005.97 1006.84 1007.78 1008.85 1009.54 1010.46 1011.18 1011.93 1012.53 1012.89 1013.26 1013.62 1014.32 1014.65 1014.73 1015.17 1015.30 1015.50 1015.36
1000.63 1000.81 1000.02 999.10 998.96 999.59 1000.32 1001.26 1002.51 1003.25 1004.42 1004.40 1002.75 1001.75 1000.82 1000.77 1000.98 1001.37 1001.54 1001.11 1003.78 1002.36 1002.77 1003.37 1004.39 1005.36 1006.29 1007.19 1008.31 1009.13 1009.87 1010.46 1011.24 1012.03 1012.58 1013.06 1013.19 1013.59 1014.01 1014.53 1014.72 1014.83 1015.17 1015.45
1000.26 1000.34 1000.05 999.58 999.37 999.76 1000.16 1001.05 1002.09 1003.20 1003.85 1004.04 1003.14 1002.35 1000.59 1000.29 1000.57 1001.99 1002.14 1002.09 1002.74 1002.82 1002.55 1003.18 1003.97 1004.60 1005.55 1006.67 1007.88 1008.74 1009.52 1010.23 1010.96 1011.57 1012.28 1012.76 1013.05 1013.24 1013.60 1014.11 1014.33 1014.45 1014.69 1014.98
1000.02 1000.89 1000.59 999.74 999.13 999.04 999.56 1000.31 1001.30 1002.97 1003.49 1003.24 1002.54 1001.46 1000.03 1000.05 1001.09 1001.53 1002.32 1002.08 1001.60 1001.60 1002.88 1002.58 1003.34 1004.33 1005.26 1006.32 1007.40 1008.40 1009.08 1009.73 1010.16 1010.76 1011.55 1012.19 1012.59 1012.88 1013.13 1013.47 1013.67 1013.93 1014.19 1014.67
1001.88 1001.51 1001.52 1000.91 1000.03 999.37 999.72 1000.10 1000.52 1000.98 1001.67 1002.46 1002.33 1001.09 999.82 999.80 1000.93 1001.58 1002.12 1002.02 1001.52 1001.03 1001.87 1002.35 1003.14 1004.35 1005.14 1005.83 1006.70 1007.80 1008.55 1009.31 1009.70 1010.28 1011.18 1011.75 1012.16 1012.55 1012.86 1013.05 1013.29 1013.47 1013.75 1014.04
1002.55 1002.80 1002.99 1002.60 1001.81 1001.30 1001.06 1000.86 1000.53 1001.42 1001.79 1001.33 1000.68 999.93 999.81 999.64 1000.55 1001.87 1002.01 1001.39 1000.93 1001.68 1001.98 1002.03 1003.30 1004.11 1004.94 1005.80 1006.79 1007.67 1008.23 1008.66 1009.36 1010.09 1010.66 1011.29 1011.71 1011.94 1012.23 1012.48 1012.71 1012.85 1013.09 1013.49
1004.49 1004.34 1003.93 1003.27 1002.62 1001.50 1001.28 1001.10 1000.98 1000.65 1000.46 1000.89 999.85 999.26 999.11 999.14 1000.28 1001.70 1001.43 1001.49 1001.67 1001.85 1001.94 1002.57 1003.46 1004.32 1004.89 1005.44 1005.81 1007.31 1007.89 1008.49 1008.93 1009.68 1010.38 1010.88 1011.20 1011.41 1011.77 1012.06 1012.29 1012.47 1012.57 1013.03
1005.63 1005.69 1005.09 1004.46 1003.67 1002.83 1001.35 1000.32 1000.37 1000.05 999.57 999.56 999.14 998.06 998.02 997.55 998.57 1000.40 1000.96 1001.50 1001.39 1001.30 1001.90 1002.52 1003.25 1004.23 1004.91 1005.48 1006.12 1006.82 1007.56 1008.32 1008.87 1009.60 1009.93 1010.42 1010.74 1011.17 1011.56 1011.65 1011.81 1012.13 1012.34 1012.65
1006.40 1006.71 1006.54 1005.58 1005.30 1004.19 1002.40 1000.86 1000.20 1000.04 999.73 999.09 999.37 998.47 997.05 998.05 999.08 999.86 1000.39 1001.19 1002.31 1001.33 1001.99 1002.79 1003.35 1003.89 1004.49 1005.20 1005.84 1006.52 1007.26 1007.92 1008.81 1009.48 1009.92 1010.45 1010.80 1010.93 1011.14 1011.29 1011.61 1012.03 1012.22 1012.48
1006.41 1006.72 1006.96 1006.37 1006.33 1005.15 1002.10 1000.78 1000.76 1000.20 999.92 999.15 999.48 998.82 998.63 997.41 998.82 999.81 999.59 1000.35 1001.64 1002.80 1002.30 1002.69 1003.56 1004.07 1004.60 1005.14 1005.82 1006.54 1007.20 1007.84 1008.53 1009.25 1009.82 1010.25 1010.62 1010.71 1010.85 1011.23 1011.54 1011.81 1012.01 1012.26
1005.68 1006.27 1006.72 1006.76 1006.43 1004.55 1002.75 1002.39 1001.97 1001.77 1000.73 1000.07 998.92 999.34 999.19 999.83 998.86 1001.34 1001.37 1001.80 1003.21 1003.86 1002.46 1002.64 1003.35 1003.70 1004.40 1005.00 1005.59 1006.31 1007.12 1007.77 1008.36 1008.86 1009.42 1009.91 1010.29 1010.61 1010.84 1011.09 1011.35 1011.57 1011.93 1012.15
1005.33 1005.42 1006.36 1006.53 1006.09 1004.59 1003.47 1002.98 1003.04 1003.39 1002.11 1001.78 1000.27 999.46 999.98 1000.04 1000.25 1001.09 1001.36 1002.75 1001.80 1002.25 1002.15 1002.73 1003.12 1003.47 1003.98 1004.58 1005.06 1005.89 1006.89 1007.61 1008.26 1008.51 1008.92 1009.42 1009.76 1010.26 1010.65 1010.98 1011.32 1011.49 1011.76 1011.98
1005.97 1005.64 1005.92 1006.16 1006.17 1005.18 1004.61 1004.43 1003.65 1004.91 1005.17 1003.58 1002.70 1001.30 1001.51 1001.88 1000.93 1000.43 1002.09 1002.70 1002.04 1002.57 1003.77 1002.74 1003.27 1003.55 1004.13 1004.66 1005.05 1005.76 1006.43 1007.15 1007.67 1008.09 1008.57 1009.06 1009.42 1009.95 1010.38 1010.88 1011.15 1011.37 1011.73 1011.94
1007.45 1007.52 1007.00 1006.97 1006.78 1006.22 1005.47 1005.27 1006.37 1007.65 1006.54 1005.40 1004.41 1002.25 1002.43 1002.25 1001.27 1002.11 1002.85 1003.21 1003.83 1004.12 1003.89 1002.99 1003.59 1004.02 1004.33 1004.87 1005.26 1005.74 1006.24 1006.77 1007.36 1007.92 1008.37 1008.79 1009.21 1009.63 1010.11 1010.68 1011.06 1011.21 1011.54 1011.72
1008.61 1009.25 1009.37 1008.55 1007.59 1006.91 1006.88 1007.15 1007.36 1007.19 1007.97 1007.26 1005.93 1004.49 1003.27 1002.69 1003.06 1003.43 1004.11 1003.31 1003.17 1003.17 1002.66 1005.07 1004.01 1004.38 1004.94 1005.29 1005.49 1005.79 1006.33 1006.84 1007.41 1007.87 1008.49 1008.92 1009.20 1009.50 1009.83 1010.42 1011.01 1011.27 1011.38 1011.63
1009.71 1009.82 1010.31 1009.35 1008.25 1007.65 1007.33 1007.12 1007.17 1007.13 1007.84 1007.70 1006.68 1004.65 1003.59 1002.41 1003.34 1003.63 1003.37 1003.09 1002.45 1003.02 1003.91 1005.04 1003.90 1004.46 1005.13 1005.57 1005.64 1005.67 1005.97 1006.71 1007.48 1008.30 1008.59 1008.91 1009.26 1009.53 1009.85 1009.94 1010.35 1010.79 1010.97 1011.33
1010.09 1010.11 1009.49 1009.00 1008.36 1007.86 1006.88 1007.14 1007.56 1007.20 1006.99 1006.98 1006.51 1004.62 1004.10 1002.52 1003.86 1003.87 1004.64 1003.34 1002.77 1002.65 1004.23 1003.58 1003.51 1004.32 1005.33 1005.66 1005.65 1005.93 1006.23 1006.90 1007.66 1008.08 1008.70 1009.01 1009.06 1009.22 1009.39 1009.55 1009.85 1010.33 1010.57 1010.65
1009.14 1008.39 1008.15 1007.35 1006.42 1006.33 1006.85 1006.62 1006.53 1007.51 1007.65 1007.46 1006.28 1004.27 1003.82 1003.69 1003.58 1004.18 1004.63 1004.78 1004.75 1006.03 1005.29 1004.25 1003.99 1004.16 1004.94 1005.33 1005.18 1005.89 1006.23 1006.93 1007.58 1008.33 1008.53 1008.72 1008.80 1008.79 1008.94 1009.40 1009.97 1010.29 1010.30 1010.51
Thickness
5810 5783 5769 5788 5800 5806 5813 5811 5800 5803 5812 5803 5794 5796 5802 5801 5774 5780 5782 5781 5783 5784 5797 5802 5801 5798 5793 5788 5780 5775 5769 5764 5761 5758 5757 5758 5758 5759 5765 5767 5772 5770 5763 5753
5791 5774 5804 5817 5820 5813 5809 5805 5797 5821 5826 5810 5807 5800 5805 5798 5788 5779 5781 5778 5787 5788 5789 5793 5797 5797 5794 5788 5781 5776 5769 5765 5764 5763 5763 5765 5762 5761 5764 5769 5774 5771 5768 5762
5780 5799 5823 5815 5810 5805 5803 5799 5803 5803 5826 5826 5812 5791 5781 5775 5786 5803 5792 5789 5790 5788 5786 5790 5789 5793 5794 5789 5783 5777 5771 5767 5768 5769 5765 5764 5762 5759 5758 5763 5770 5769 5769 5764
5796 5820 5816 5813 5807 5813 5784 5821 5823 5815 5793 5762 5810 5742 5773 5771 5776 5783 5790 5796 5794 5798 5791 5786 5792 5793 5794 5792 5790 5781 5775 5769 5771 5772 5767 5762 5758 5754 5758 5757 5767 5770 5773 5769
5791 5804 5806 5803 5811 5821 5800 5826 5815 5813 5795 5782 5787 5761 5755 5769 5769 5778 5790 5799 5807 5809 5801 5793 5795 5799 5799 5797 5792 5784 5779 5773 5774 5773 5771 5766 5761 5761 5762 5759 5763 5767 5771 5773
5805 5829 5821 5819 5829 5830 5830 5817 5806 5806 5788 5744 5777 5776 5745 5760 5770 5780 5796 5799 5810 5811 5808 5807 5804 5804 5797 5798 5794 5786 5779 5776 5776 5775 5775 5771 5764 5762 5761 5760 5760 5766 5768 5771
5792 5805 5827 5833 5808 5825 5814 5786 5736 5733 5733 5743 5786 5772 5778 5809 5812 5800 5797 5826 5825 5809 5810 5812 5802 5801 5800 5796 5794 5788 5781 5776 5777 5777 5777 5775 5770 5766 5762 5766 5765 5766 5771 5771
5760 5761 5808 5832 5813 5794 5794 5781 5742 5722 5726 5750 5782 5757 5785 5828 5835 5825 5818 5818 5813 5809 5822 5812 5811 5807 5804 5800 5795 5790 5784 5779 5778 5778 5778 5778 5775 5769 5767 5768 5770 5768 5768 5773
5763 5772 5826 5834 5833 5818 5792 5767 5794 5763 5773 5756 5778 5804 5820 5829 5821 5832 5832 5817 5823 5823 5821 5819 5813 5808 5805 5804 5797 5793 5789 5785 5781 5777 5777 5778 5777 5773 5771 5770 5767 5769 5772 5776
5794 5762 5810 5826 5833 5826 5803 5811 5760 5761 5735 5728 5766 5795 5783 5811 5818 5818 5821 5828 5790 5822 5821 5819 5815 5810 5807 5805 5799 5796 5793 5788 5784 5779 5776 5776 5776 5777 5775 5772 5769 5770 5770 5769
5804 5788 5790 5815 5804 5794 5796 5781 5786 5775 5761 5735 5735 5761 5817 5820 5828 5808 5815 5823 5811 5813 5824 5818 5818 5816 5811 5807 5800 5795 5792 5787 5782 5779 5775 5773 5775 5776 5775 5771 5770 5771 5772 5771
5809 5781 5762 5783 5822 5830 5821 5794 5787 5742 5749 5760 5757 5763 5834 5834 5820 5821 5814 5819 5831 5832 5821 5825 5823 5815 5809 5802 5797 5792 5790 5788 5787 5784 5778 5775 5775 5776 5776 5774 5774 5774 5772 5771
5779 5763 5737 5751 5789 5814 5804 5809 5804 5795 5784 5759 5747 5761 5828 5833 5814 5819 5808 5817 5826 5833 5825 5823 5818 5808 5804 5803 5802 5794 5791 5788 5788 5786 5778 5776 5775 5774 5775 5775 5774 5776 5774 5773
5775 5759 5746 5726 5751 5776 5769 5777 5788 5779 5756 5766 5777 5796 5813 5824 5806 5801 5804 5821 5833 5818 5819 5823 5813 5811 5804 5800 5797 5793 5790 5792 5788 5784 5779 5776 5775 5776 5777 5777 5776 5777 5778 5775
5747 5726 5741 5752 5764 5776 5775 5774 5779 5779 5777 5761 5788 5794 5813 5824 5813 5797 5811 5817 5816 5818 5816 5819 5812 5806 5805 5800 5800 5793 5790 5790 5789 5780 5777 5775 5776 5778 5777 5776 5778 5778 5779 5776
5729 5709 5723 5727 5750 5755 5758 5779 5780 5783 5793 5789 5797 5802 5830 5845 5841 5812 5813 5817 5819 5819 5818 5816 5814 5808 5804 5801 5800 5795 5790 5787 5787 5780 5780 5778 5775 5773 5773 5776 5778 5777 5777 5776
5708 5694 5695 5693 5718 5723 5726 5759 5773 5778 5789 5792 5775 5796 5837 5828 5823 5815 5813 5810 5806 5822 5818 5809 5809 5810 5809 5806 5805 5795 5792 5790 5783 5777 5777 5773 5770 5770 5771 5776 5777 5775 5774 5772
5692 5687 5685 5681 5688 5667 5739 5771 5771 5770 5780 5788 5784 5800 5808 5823 5818 5817 5825 5819 5814 5808 5814 5812 5807 5806 5806 5804 5800 5795 5791 5787 5783 5778 5776 5774 5771 5772 5774 5775 5774 5774 5773 5771
5700 5681 5670 5661 5659 5695 5722 5739 5745 5741 5751 5780 5789 5791 5803 5796 5808 5792 5803 5801 5788 5793 5811 5812 5808 5809 5808 5803 5802 5798 5792 5788 5784 5781 5778 5776 5774 5773 5773 5772 5772 5771 5769 5768
5691 5689 5668 5666 5648 5656 5709 5731 5741 5732 5721 5759 5777 5786 5787 5795 5774 5779 5793 5785 5794 5801 5812 5810 5811 5811 5807 5807 5807 5800 5791 5786 5783 5783 5782 5780 5778 5775 5772 5771 5769 5769 5767 5765
5661 5665 5662 5661 5645 5667 5689 5703 5733 5691 5702 5742 5754 5767 5765 5761 5773 5794 5788 5786 5798 5796 5792 5809 5806 5805 5804 5805 5805 5798 5794 5788 5787 5787 5785 5780 5778 5775 5772 5769 5767 5766 5763 5761
5637 5629 5638 5636 5634 5633 5682 5693 5673 5672 5696 5720 5729 5755 5757 5755 5773 5773 5773 5774 5772 5777 5785 5802 5798 5799 5800 5798 5798 5794 5790 5791 5789 5785 5781 5779 5777 5774 5771 5767 5764 5762 5760 5757
5617 5614 5611 5626 5634 5656 5662 5664 5668 5677 5669 5689 5707 5729 5739 5750 5750 5756 5755 5769 5774 5781 5796 5777 5792 5790 5789 5789 5790 5787 5786 5785 5781 5778 5774 5772 5772 5770 5767 5762 5757 5755 5754 5750
5606 5605 5600 5610 5629 5638 5648 5659 5661 5668 5656 5678 5697 5723 5734 5745 5747 5753 5763 5775 5782 5783 5775 5774 5792 5789 5783 5782 5784 5788 5788 5783 5776 5767 5767 5766 5764 5764 5762 5762 5760 5754 5752 5748
5595 5594 5602 5604 5617 5630 5643 5645 5641 5660 5663 5677 5691 5718 5722 5744 5730 5747 5745 5763 5775 5781 5770 5784 5793 5785 5777 5777 5780 5782 5782 5776 5768 5766 5763 5761 5762 5761 5760 5760 5757 5754 5751 5749
5596 5603 5603 5612 5634 5640 5633 5638 5646 5642 5652 5664 5683 5713 5716 5729 5733 5729 5736 5742 5747 5736 5750 5761 5777 5780 5774 5776 5782 5779 5778 5772 5767 5760 5760 5760 5760 5760 5759 5755 5749 5744 5744 5740